Regional Weather Roundup
Issued by NWS State College, PA

Home | Current Version | Previous Version | Text Only | Print | Product List | Glossary On
Versions: 1 2 3 4 5 6 7 8 9 10 11 12 13 14 15 16 17 18 19 20 21 22 23 24 25 26 27 28 29 30 31 32 33 34 35 36 37 38 39 40 41 42 43 44 45 46 47 48 49 50
000
ASUS41 KCTP 211310
RWRCTP

REGIONAL WEATHER ROUNDUP
NATIONAL WEATHER SERVICE STATE COLLEGE PA
900 AM EDT THU AUG 21 2014

Note: "fair" indicates few or no clouds below 12,000 feet with no
significant weather and/or obstructions to visibility.

* = STATION THAT DOES NOT REPORT PRECIPITATION /E.G. RAIN...SNOW...ETC/
    THUNDER OR FOG.

PAZ002>004-007>009-013>016-020>023-029>032-211400-
WESTERN PENNSYLVANIA

CITY           SKY/WX    TMP DP  RH WIND       PRES   REMARKS
ERIE           CLOUDY    72  65  78 SW6       30.01R
MEADVILLE      CLOUDY    67  65  93 S5        30.04S FOG
FRANKLIN*      CLOUDY    66  64  94 CALM      30.06S
NEW CASTLE     NOT AVBL
BEAVER COUNTY  SUNNY     70  66  88 CALM      30.05R
BUTLER*        SUNNY     70  66  88 S5        30.07S
PITTSBURGH INT PTSUNNY   70  67  90 SW6       30.06R
PITTSBURGH     SUNNY     69  65  86 S6        30.06R
INDIANA*       CLOUDY    72  68  88 SW5       30.11S
LATROBE        MOSUNNY   72  72 100 S8        30.07S
WASHINGTON CO* CLOUDY    70  66  88 SW8       30.09R
$$

PAZ004>006-010>012-017>019-024>028-033>037-041-042-045-046-049>053-211400-
CENTRAL PENNSYLVANIA

CITY           SKY/WX    TMP DP  RH WIND       PRES   REMARKS
BRADFORD       CLOUDY    67  64  90 SW3       30.07S
DUBOIS         CLOUDY    67  66  97 SW8       30.07R FOG
CLEARFIELD     CLOUDY    65  65 100 S3        30.07S FOG
JOHNSTOWN      MOSUNNY   70  64  81 SW6       30.10S
ALTOONA        MOSUNNY   70  68  93 SW6       30.08S
STATE COLLEGE  MOSUNNY   70  68  94 CALM      30.06S FOG
WILLIAMSPORT   PTSUNNY   71  68  90 E3        30.03S
SELINSGROVE    CLOUDY    69  67  93 S3        30.06R FOG
FT INDIANTOWN  LGT RAIN  70  70 100 SE2       30.06S
CAPITAL CITY   SUNNY     73  65  75 CALM      30.05S
HARRISBURG     MOSUNNY   73  65  75 SE3       30.05S
YORK           PTSUNNY   70  66  87 CALM      30.06S
$$

PAZ038>040-043-044-047-048-054-055-060>062-067>071-211400-
EASTERN PENNSYLVANIA

CITY           SKY/WX    TMP DP  RH WIND       PRES   REMARKS
SCRANTON       CLOUDY    72  62  71 SW6       30.06S
MOUNT POCONO   CLOUDY    65  63  93 SW6       30.10S FOG
ALLENTOWN      MOSUNNY   73  64  73 CALM      30.07R
QUAKERTOWN*    PTSUNNY   72  64  78 MISG      30.08S
READING        CLOUDY    72  64  76 S6        30.06R
LANCASTER      CLOUDY    69  66  90 E5        30.06R FOG
COATESVILLE    CLOUDY    68  68 100 CALM      30.08S FOG
POTTSTOWN      CLOUDY    71  65  81 SW6       30.08S
BLUE BELL      PTSUNNY   73  68  83 S5        30.06S
DOYLESTOWN     MOSUNNY   72  66  81 CALM      30.07R
WILLOW GROVE   NOT AVBL
NORTH PHILA    SUNNY     75  64  68 VRB3      30.08R
PHILADELPHIA   CLOUDY    74  66  76 CALM      30.06S
$$



USA.gov is the U.S. government's official web portal to all federal, state and local government web resources and services.